Погода в Зарбдаре

Узбекистан     40°05′15″N   68°09′51″E
темп.,
°C
ветер,
м/с
пор.,
м/с
влажн.,
%
обл.,
%
осадки,
мм/ч
давл.,
гПа
погр.,
м
12 августа, пт
пт1223:00+24юз22290 0.0 101011
02:00+21зюз33310 0.0 101030
05:00+20з22340 0.0 101018
08:00+24зсз33280 0.0 1011328
11:00+29ссз32210 0.0 10101380
14:00+32ссз22170 0.0 10071933
17:00+34ссз33140 0.0 10062451
20:00+27сз22180 0.0 100712
13 августа, сб
сб1323:00+26зюз33210 0.0 100734
02:00+23з46290 0.0 100783
05:00+21зюз35320 0.0 100864
08:00+25зсз44280 0.0 1009451
11:00+30сз33210 0.0 1007967
14:00+34ссз22150 0.0 10041765
17:00+36с12130 0.0 10032441
20:00+29з22170 0.0 100311
14 августа, вс
вс1423:00+28юз23180 0.0 100212
02:00+26зюз46220 0.0 1003103
05:00+23зюз34320 0.0 100551
08:00+27зсз34260 0.0 1005445
11:00+32сз33180 0.0 1004972
14:00+36ссз33130 0.0 10021798
17:00+38ссз32120 0.0 10012405
20:00+30зсз22180 0.0 100211
15 августа, пн
пн1523:00+29юз33190 0.0 100213
02:00+27юз22200 0.0 100112
05:00+26юз22210 0.0 100212
08:00+31сз11170 0.0 1003268
11:00+36ссз32130 0.0 10021373
14:00+39ссз43110 0.0 10012693
17:00+39с43110 0.0 10002860
20:00+31з33170 0.0 100216
16 августа, вт
вт1623:00+30юз33170 0.0 100216
02:00+28юз33180 0.0 100316
05:00+26з23230 0.0 100417
08:00+29зсз34200 0.0 1006403
11:00+34сз44150 0.0 10051109
14:00+38ссз43120 0.0 10032946
17:00+37ссз64120 0.0 10033322
20:00+29ссв11170 0.0 100411